STARLINK-31969, 59889

Orbit data source: Space-Track

STARLINK-31969, 59889 is a payload satellite owned by SpaceX/Seattle (US) in LEO that was launched on Tue, 28 May 2024 UTC via an FALCON 9 launch vehicle from the Air Force Eastern Test Range (AFETR). Payload-class satellites include a variety of spacecraft equipped with specific instruments for various scientific and technological missions. These include communications satellites like Starlink; space stations such as the ISS; scientific satellites like the Hubble; Earth observation satellites from companies like Planet Labs, Umbra, and HawkEye 360; GPS; miniature CubeSats for education and research; and military/defense satellites.

Loading next visibility...
Identifier
59889, 2024-100E
Orbit
LEO
Country
Flag of USUS
Related business
Manufacturer
SpaceX/Seattle
Mission
Operational Commercial Communications
Bus & Motor
STARLINK V2M, Unknown motor
Mass
730 kg wet, ~700 kg dry
Launch date (UTC)
2024-05-28 (2 years ago)
Launch vehicle
FALCON 9
Launch site
Air Force Eastern Test Range (AFETR)
Object type
Payload
Rocket body
Debris
Shape & HBR
Box + 2 Pan, 17.7 m
Radar Cross Section
33.884 m², Large (>1 m²)

Expand to show TLE details & history
Last TLE update: 12 hours ago

TLE from 12 hours ago
0 STARLINK-31969
1 59889U 24100E   26126.14095851  .00002814  00000-0  11175-3 0  9999
2 59889  43.0034 157.4611 0001062 272.6604  87.4126 15.27580847109988
Epoch: 2026-05-06T03:22Z
TLE epoch observation values (Epoch: 2026-05-06T03:22:58.815Z)
Latitude
-0.00002°
Longitude
-117.28969°
Altitude
482.79 km
Speed
7.626 km/s
True Right ascension
10h 29m 50s
True Declination
0° 00' 00"
Sunlit
Object was in full shadow at epoch
Visualization orbit readout
Latitude
Unknown
Longitude
Unknown
Altitude
Unknown
Speed
Unknown
Apparent Right ascension
Unknown
Apparent Declination
Unknown
Sunlit
N/A
Visualization observer readout
Local Sidereal Time
23:14:30
Azimuth
Unknown
Elevation
Unknown
Doppler factor
Unknown
Orbital elements
Apogee altitude
485.72 km
Perigee altitude
484.262 km
Semi-major axis
6,863.128 km
Eccentricity
0.00011
Inclination
43.0034°
RAAN
157.4611°
Arg. of periapsis
272.6604°
True anomaly
87.42476°
Mean anomaly
87.4126°
Eccentric anomaly
87.41868°
Mean motion
3.81733 °/min
Orbital period
94.31 mins
BSTAR
0.00011175
Loading maneuver chart data...
Computing Atmospheric mass density...
Loading historical data...
Loading historical data...
Loading historical data...
Loading historical data...
Loading historical data...
Loading historical data...
Loading historical data...

Documentation

Showing up to 5 results
|